GFSSW_sfc_dewp_021.txt.gz
Dewpoint
51 51 51 51 51 51 52 52 52 52 52 52 51 52 52 53 53 41 36 35 40 59 62 45 48 44 41 35 31 33 31 29 29 27 27 27 27 27 30 31 31 31 31 33 35
51 51 51 51 51 51 51 51 52 52 52 52 52 52 52 53 44 32 43 58 61 61 28 33 40 38 39 38 34 32 33 32 31 29 28 29 29 29 29 30 31 31 32 33 34
50 50 51 51 51 51 50 51 51 51 51 52 52 52 51 50 34 18 56 58 60 58 19 24 35 35 33 36 34 33 33 35 33 32 31 31 31 31 31 31 31 31 32 34 35
48 49 50 51 51 51 51 50 50 51 51 51 52 51 51 44 15 42 51 52 54 43 29 20 22 32 29 29 33 33 34 34 34 33 31 31 31 31 32 33 33 32 34 35 35
49 50 50 51 51 51 51 51 51 51 51 51 51 51 44 32 27 28 54 50 35 41 41 27 21 26 31 27 29 29 30 30 32 32 31 31 31 31 32 33 33 33 34 35 35
50 50 51 51 51 51 52 52 52 52 51 52 51 51 43 29 25 26 28 29 30 29 37 30 25 26 29 31 28 29 29 28 28 28 28 28 31 31 33 35 34 33 33 33 32
49 50 50 51 51 51 52 52 52 52 51 52 51 46 39 31 26 24 27 26 24 27 26 32 29 26 29 30 31 30 29 30 30 29 28 28 29 30 31 31 32 33 32 32 32
50 51 51 51 51 51 51 52 52 51 51 52 51 45 38 28 23 22 22 22 24 27 29 28 29 29 27 28 27 26 29 28 29 29 28 28 28 30 32 31 32 29 28 29 31
51 51 51 51 51 51 52 52 51 51 51 51 47 41 30 37 30 28 25 22 23 26 29 27 25 25 26 24 25 28 27 28 27 28 28 28 28 30 32 32 33 32 30 29 32
51 51 51 51 51 51 51 51 49 48 47 43 40 35 32 19 15 27 29 27 29 27 26 28 23 20 21 22 22 24 25 26 26 26 26 26 27 28 29 26 29 30 30 31 32
50 51 51 51 51 51 48 37 33 36 38 31 23 28 21 19 19 17 20 24 31 29 25 26 21 16 18 22 22 22 22 23 25 25 26 26 27 27 28 28 28 29 31 32 33
50 50 50 51 51 51 47 31 31 34 32 28 23 21 21 20 18 17 18 21 24 26 23 23 21 20 16 17 20 20 20 22 24 25 25 27 26 28 28 28 30 30 32 32 33
51 51 50 50 50 47 35 33 35 34 32 26 19 15 16 22 21 20 18 17 17 23 22 20 20 19 15 15 16 19 21 23 23 24 25 24 24 25 27 29 29 30 31 33 34
51 51 51 50 44 36 31 34 33 36 29 14 19 22 24 27 26 27 23 18 13 13 19 19 17 18 17 14 14 17 19 21 24 23 20 22 19 25 26 27 28 29 31 33 33
51 51 51 49 42 35 34 35 35 38 13 11 18 27 21 20 23 25 28 25 15 10 11 16 17 16 17 16 15 15 16 19 22 22 22 19 17 21 24 26 27 30 31 32 32
51 50 49 42 42 38 36 36 37 30 13 11 17 22 16 16 22 18 24 28 26 18 13 14 16 16 16 16 15 15 14 18 22 20 19 21 18 20 22 26 28 29 29 31 32
51 49 46 41 37 38 38 35 31 21 16 18 22 20 24 14 9 17 17 19 22 20 16 13 15 16 16 15 17 16 19 15 20 18 20 19 19 23 27 28 28 29 29 29 35
50 48 45 41 41 42 39 35 24 15 15 13 12 11 8 7 7 6 15 13 15 23 25 9 7 14 18 15 16 18 19 15 18 17 15 19 20 22 27 26 27 29 30 37 42
48 42 40 40 42 42 39 31 18 18 18 18 19 20 17 9 2 9 11 15 26 29 34 27 7 7 16 17 16 17 16 19 19 18 14 18 23 26 28 28 25 27 29 38 45
42 36 38 41 44 42 38 25 17 17 19 21 20 24 18 14 15 13 11 32 27 27 33 34 22 8 13 16 16 17 17 16 18 18 19 17 22 23 25 24 26 31 31 39 47
43 34 38 41 43 38 34 22 18 19 20 25 24 22 20 21 20 18 18 28 31 26 29 31 36 26 12 19 15 13 14 18 21 16 17 19 19 29 27 27 29 32 36 44 47
37 27 34 41 41 42 31 23 27 20 20 20 25 26 25 24 23 21 23 27 29 31 31 29 35 30 19 17 16 15 17 21 19 22 17 18 19 25 28 29 29 31 39 45 46
32 30 37 38 36 33 27 24 21 21 21 19 22 26 27 26 24 19 24 34 35 34 36 36 32 26 31 27 18 15 16 22 26 26 22 15 19 27 30 33 33 36 41 44 45
32 30 28 35 32 32 29 27 25 25 27 27 26 26 28 26 24 28 25 33 33 34 39 39 34 29 33 27 16 17 15 19 25 22 21 17 21 22 29 32 34 40 43 43 45
33 28 32 29 32 30 31 28 28 30 31 29 27 24 27 24 21 24 30 27 34 35 37 39 30 28 32 35 30 16 15 18 21 22 21 20 18 24 31 33 37 41 42 43 43
34 32 31 32 31 29 29 29 25 27 32 28 29 28 25 24 24 25 26 28 32 35 38 37 34 26 31 35 32 16 15 17 20 21 20 18 20 24 30 27 30 33 39 42 43
39 38 40 32 29 28 30 28 29 31 32 32 30 30 28 26 28 28 28 28 28 27 29 33 34 33 31 32 28 20 19 16 17 21 20 16 20 21 22 25 30 35 35 40 42

GFSSW_sfc_dewp_024.txt.gz
Dewpoint
50 50 50 51 52 51 51 51 51 52 52 52 53 53 53 53 53 42 38 37 44 60 61 44 45 48 47 47 37 30 29 31 31 30 29 29 26 28 29 29 29 30 31 33 34
49 50 50 50 50 51 51 51 51 51 51 52 52 53 53 54 44 36 41 57 60 62 32 31 40 41 39 38 38 30 28 29 30 30 29 30 30 28 30 31 31 32 34 33 33
49 49 50 51 51 51 52 51 51 51 51 52 52 52 53 51 37 20 57 62 62 55 25 27 30 38 35 33 36 34 30 30 30 31 32 31 31 33 32 32 32 34 34 34 33
50 51 51 51 51 52 52 52 52 51 51 52 52 52 53 45 16 33 57 54 56 33 25 23 21 25 34 32 31 33 34 32 31 31 32 32 33 32 32 33 33 35 37 35 36
50 50 50 51 51 52 52 51 52 52 52 51 51 51 46 26 27 29 59 53 34 34 30 28 24 23 25 32 32 30 32 33 32 32 32 33 31 32 32 33 33 33 35 36 37
50 50 50 51 51 52 53 53 52 53 52 51 51 50 43 30 25 21 22 26 26 26 29 36 28 26 25 26 30 31 28 27 27 28 29 28 28 29 30 31 31 34 35 35 37
51 52 52 51 52 52 53 52 52 52 51 51 52 47 39 32 27 26 26 24 26 27 27 28 36 31 28 26 27 27 28 29 29 28 28 30 29 30 32 32 31 33 34 35 36
52 52 52 51 52 52 52 52 52 52 51 52 52 46 35 28 26 25 24 23 20 22 23 24 28 26 29 28 26 25 26 26 29 30 30 30 29 32 32 31 31 32 34 35 37
52 52 51 50 50 51 52 52 52 52 52 52 47 41 30 36 28 29 25 18 14 15 20 22 24 27 26 26 26 26 25 26 27 29 29 28 28 31 32 31 33 35 36 35 36
51 51 51 51 50 52 51 51 50 49 46 43 42 35 35 30 21 23 26 25 19 19 19 22 22 21 21 20 21 23 24 25 26 26 26 27 28 30 31 29 32 34 34 33 34
51 51 52 52 52 51 48 43 27 31 40 38 33 33 28 24 19 16 15 17 21 26 21 20 21 19 19 20 19 21 23 22 25 25 26 28 29 28 31 30 31 33 34 36 38
51 51 51 52 52 51 46 36 29 30 27 27 25 24 22 18 15 14 16 14 18 21 25 19 20 23 19 17 16 15 18 20 24 23 25 25 26 29 31 32 32 33 35 36 38
51 52 51 51 51 46 37 31 30 30 27 26 24 22 19 14 15 16 16 14 12 16 21 19 18 20 20 17 15 16 17 21 21 21 22 25 25 29 28 30 31 31 33 35 37
51 51 51 50 44 36 32 31 30 33 25 18 14 17 16 17 20 21 21 16 12 10 11 16 19 15 18 18 16 17 16 16 19 20 20 23 21 29 29 28 29 30 32 35 36
51 51 51 50 44 34 32 34 32 34 20 17 26 26 26 22 26 24 29 21 16 14 10 7 15 17 15 16 18 17 16 16 17 19 23 21 22 25 27 24 26 30 32 35 37
51 51 50 42 43 39 35 36 36 30 22 23 29 21 24 27 26 23 25 26 28 21 12 9 6 9 16 14 16 18 16 17 18 18 19 22 22 22 24 26 27 30 32 34 35
50 50 48 43 35 37 38 35 31 26 21 12 9 11 11 12 14 16 19 18 19 25 21 17 10 8 7 14 16 16 23 17 18 16 17 20 19 24 28 25 28 31 32 34 36
49 49 46 39 37 39 38 34 26 23 9 12 11 12 13 11 8 6 8 13 13 14 20 27 24 10 10 13 16 17 22 16 16 15 15 18 19 21 27 27 29 26 32 34 40
48 43 41 39 41 41 39 30 25 16 11 11 13 22 21 23 25 18 5 9 13 28 25 26 23 21 9 13 15 16 16 19 19 17 13 16 22 26 27 28 29 26 33 42 46
43 42 36 40 43 39 38 27 21 15 11 14 14 24 25 19 23 23 21 26 21 22 24 24 23 23 25 11 14 17 16 17 19 18 19 17 19 19 28 30 29 29 36 46 50
43 35 38 38 42 37 34 23 19 17 15 16 16 25 20 23 25 23 24 21 28 21 23 23 27 24 26 25 10 16 15 17 22 18 18 19 18 35 32 30 33 34 35 48 49
40 31 35 38 40 43 31 23 27 25 22 20 20 23 25 27 23 21 22 31 34 29 27 29 30 26 25 27 8 17 17 21 19 22 20 19 19 32 35 30 36 34 39 47 49
38 30 38 37 36 33 28 24 24 23 25 24 24 24 25 26 29 27 28 35 33 32 33 36 33 26 26 26 30 19 18 22 27 30 25 17 20 30 29 32 32 40 44 47 48
39 28 28 33 32 33 28 26 24 29 29 27 24 25 27 28 27 26 31 31 31 30 35 36 34 28 27 31 35 28 17 19 25 22 22 21 25 27 29 31 35 44 47 46 47
37 28 32 27 30 29 30 29 26 24 25 27 28 25 23 23 21 21 25 26 30 32 34 39 33 31 26 33 38 37 32 14 18 23 22 23 23 25 32 34 41 46 45 45 45
33 31 32 32 31 30 32 29 25 26 29 28 27 26 25 24 25 24 23 24 28 33 34 39 34 32 28 26 32 35 32 27 15 19 22 24 25 33 37 37 40 43 43 43 45
40 39 37 34 29 28 32 32 29 32 32 27 27 32 27 25 28 26 28 28 27 26 28 29 32 34 26 23 33 31 29 26 19 22 24 22 30 35 32 34 40 42 43 44 45

GFSSW_sfc_dewp_030.txt.gz
Dewpoint
49 49 49 50 51 51 51 52 52 52 52 52 52 53 53 53 54 47 38 38 44 56 60 36 53 48 42 47 48 37 32 29 29 30 31 33 32 32 33 32 33 35 34 35 41
50 50 50 50 51 51 52 52 52 52 52 52 52 52 52 53 48 44 44 54 57 61 46 37 32 43 49 48 47 45 37 32 30 30 30 30 31 31 32 33 34 35 41 42 39
50 50 50 51 51 51 52 52 52 52 52 52 52 52 52 52 40 29 56 56 56 57 43 35 31 29 40 46 45 45 42 37 31 30 30 29 29 31 31 31 34 35 35 37 39
51 51 51 51 51 51 51 51 52 52 52 52 52 52 52 48 -6 33 56 57 61 55 43 34 27 26 25 35 42 40 42 44 41 38 34 31 30 30 31 32 36 37 36 36 37
52 51 51 51 51 51 51 51 52 52 52 52 51 51 46 41 40 21 49 40 29 53 40 32 26 22 21 21 22 29 37 37 38 38 37 35 33 32 32 34 34 35 36 35 35
51 51 51 51 52 52 52 52 52 52 51 51 51 49 43 35 35 34 32 30 28 27 34 28 25 24 23 23 21 23 25 30 33 31 31 33 34 35 35 35 34 34 33 34 34
52 52 52 52 52 53 52 52 52 52 52 51 51 46 42 38 39 34 32 29 30 29 24 27 27 25 26 24 25 23 24 25 25 26 31 31 30 31 33 32 30 30 32 34 35
49 51 51 51 52 52 52 52 52 52 53 52 51 46 39 40 40 40 40 36 33 31 27 24 21 23 28 29 27 27 26 23 25 26 26 28 27 31 32 31 32 31 31 32 32
49 52 51 51 51 51 52 52 53 53 52 52 48 45 39 43 39 38 36 30 27 25 22 18 20 21 24 24 25 25 26 24 24 26 27 26 25 29 31 30 32 32 32 33 33
51 51 51 51 51 52 52 52 52 50 48 46 44 42 39 33 34 35 32 30 28 25 21 19 16 18 20 23 21 24 25 25 24 25 26 25 25 27 28 28 28 29 30 32 32
50 51 51 52 52 52 50 44 30 29 31 28 26 32 34 32 30 27 32 25 29 25 17 18 13 12 16 19 21 24 24 24 27 26 26 25 26 27 28 29 30 31 31 32 34
49 49 51 52 52 52 48 40 31 30 28 30 28 29 29 29 26 26 26 23 21 16 19 16 14 14 15 19 20 20 21 22 22 21 25 26 25 26 27 27 28 28 30 31 31
50 50 50 51 51 45 40 34 34 33 28 28 31 30 28 27 26 26 25 23 19 15 14 17 22 19 16 16 18 19 18 20 21 20 18 17 16 18 20 24 25 28 30 32 32
50 50 50 50 43 42 39 37 36 34 27 27 28 23 25 24 23 25 25 23 19 15 13 11 12 11 16 17 15 17 21 20 19 18 15 17 13 15 16 18 21 23 27 28 28
50 50 50 49 44 41 39 39 37 34 16 20 25 27 23 25 24 25 30 33 21 17 14 11 11 12 13 15 21 15 19 22 21 19 17 17 19 14 21 20 21 22 23 25 29
50 50 50 45 44 44 43 39 37 25 14 21 19 16 19 24 22 26 29 34 34 25 15 13 13 10 9 8 9 10 19 18 18 19 16 16 15 13 15 17 23 25 26 26 30
50 50 48 46 39 41 40 36 23 18 24 19 20 17 18 21 22 26 25 25 29 30 23 22 25 26 23 13 12 10 10 14 15 16 16 16 16 16 21 22 23 22 25 28 29
49 49 46 45 44 43 39 30 15 22 25 28 27 21 17 25 23 25 25 23 25 28 25 21 19 23 25 25 11 8 9 15 12 16 14 16 16 16 19 18 18 22 25 33 48
48 43 44 43 43 41 34 23 24 26 31 28 30 21 20 23 25 22 25 27 26 31 26 23 21 24 23 20 20 18 7 9 12 14 16 17 18 21 17 17 17 17 33 51 54
43 41 42 42 41 39 32 26 28 27 25 28 26 27 22 23 23 24 26 31 32 32 32 26 21 22 20 19 20 21 23 11 13 12 12 17 18 16 19 21 23 22 47 52 54
41 39 41 41 43 37 26 29 28 26 29 29 27 26 26 26 24 25 27 29 33 31 31 29 27 23 26 21 16 18 21 15 15 14 12 16 17 21 20 21 21 25 48 52 54
39 35 39 39 33 29 28 30 32 26 32 30 29 27 29 28 28 26 25 31 32 35 30 34 31 28 23 23 24 24 20 23 17 11 17 17 15 21 22 24 32 39 50 52 53
37 38 41 37 27 27 31 30 31 33 30 30 28 28 30 29 27 28 29 30 32 33 32 34 28 23 20 25 27 27 28 33 27 21 15 15 16 18 22 24 43 48 50 52 53
38 34 33 35 33 29 30 32 33 36 33 30 30 29 30 29 28 28 28 31 32 35 37 39 31 27 20 23 28 31 32 31 30 23 16 14 17 17 18 21 43 47 50 51 53
38 32 34 29 32 33 31 32 34 36 33 32 31 31 31 30 29 27 29 30 31 33 37 35 31 30 31 31 31 30 30 30 29 28 28 24 25 21 18 22 38 47 49 51 52
35 36 38 35 34 31 31 32 35 34 34 32 32 32 32 32 33 33 33 31 30 30 35 37 31 35 30 31 30 31 30 30 28 27 28 30 30 28 23 38 46 48 48 50 51
39 39 39 35 32 30 30 32 34 35 35 34 34 33 32 34 36 34 34 33 32 28 28 34 34 30 25 31 30 28 29 29 31 28 31 28 29 34 46 48 50 49 48 50 51

GFSSW_sfc_dewp_033.txt.gz
Dewpoint
50 50 50 51 51 51 51 52 52 52 52 52 52 52 52 52 53 47 36 32 44 54 58 36 52 49 43 46 47 36 31 28 29 30 31 32 33 35 35 33 35 35 38 38 44
49 49 50 51 51 51 51 51 52 52 52 52 52 52 52 52 48 43 41 48 55 58 43 29 21 44 44 45 47 39 32 28 29 29 31 29 29 30 31 32 33 35 38 38 41
50 50 51 51 51 51 51 51 51 51 51 51 52 52 51 50 35 12 56 55 57 56 51 42 33 33 43 47 46 46 40 31 29 31 31 29 29 29 29 29 31 33 36 37 36
50 50 51 51 51 51 51 51 51 51 51 51 51 51 50 46 -17 19 56 52 52 40 49 39 33 28 27 35 44 43 44 43 39 37 37 35 35 33 31 30 33 34 36 37 37
50 51 51 51 51 51 51 51 52 52 51 51 51 50 45 39 35 27 45 40 30 30 51 39 28 27 24 24 27 33 41 41 42 41 42 42 39 38 35 36 35 35 35 38 38
50 50 50 51 51 51 52 52 52 52 51 51 50 48 41 36 36 35 34 31 28 27 27 38 28 26 23 22 24 26 28 30 33 35 35 33 33 34 35 37 37 37 37 35 36
50 51 51 51 52 52 52 52 52 52 52 51 50 45 42 39 40 38 39 37 33 31 27 25 30 26 24 24 24 24 22 24 25 25 25 30 28 30 33 33 33 34 33 32 35
50 51 51 50 51 52 53 53 53 53 53 51 51 45 40 42 41 40 39 38 38 37 32 29 26 21 28 27 26 26 23 19 22 25 26 26 28 31 33 33 33 33 33 32 33
49 51 50 50 50 51 53 53 53 53 51 52 48 44 39 44 40 41 38 33 31 29 29 24 20 20 24 23 24 25 25 25 23 26 26 26 27 30 30 29 30 31 31 33 34
49 50 50 50 50 51 52 53 52 49 49 49 46 38 33 26 29 30 30 29 30 28 23 19 15 19 19 23 20 23 24 26 26 26 25 25 25 27 30 30 30 31 30 30 31
49 49 50 51 51 51 50 41 32 30 31 28 27 28 29 30 31 29 29 27 26 27 20 17 12 14 18 20 21 21 23 25 26 26 25 24 25 26 27 28 28 28 29 29 31
49 49 49 51 51 51 45 38 35 32 29 30 30 29 30 31 29 28 29 24 25 20 17 16 14 17 16 18 19 19 19 20 24 24 22 24 24 24 27 28 28 29 30 31 31
49 49 50 50 51 44 40 38 38 34 29 28 28 30 28 28 28 28 26 25 22 19 17 15 17 18 14 15 14 17 19 20 21 24 21 21 19 20 20 22 24 29 30 31 32
50 50 50 50 41 43 39 38 39 34 26 25 27 27 22 24 24 26 30 25 21 17 16 14 14 12 12 15 12 11 20 20 22 20 18 18 15 16 16 16 18 20 22 24 28
50 50 50 49 43 42 39 41 40 31 9 21 23 24 22 24 22 24 34 35 28 26 16 14 13 12 10 11 15 17 15 17 21 20 19 19 17 12 16 14 14 15 17 19 20
50 50 49 44 43 44 44 40 35 21 11 24 24 27 24 21 23 27 29 34 34 35 28 19 15 13 11 11 10 12 13 17 16 19 17 17 17 14 13 13 15 23 26 27 27
50 49 48 46 36 41 41 32 21 17 25 25 26 28 28 21 23 24 24 25 30 29 27 25 16 19 14 12 16 11 10 14 15 15 14 17 17 15 20 23 23 22 24 25 25
49 49 46 46 45 42 35 26 14 22 26 28 28 28 20 22 24 25 23 26 29 29 27 26 21 25 27 21 20 12 10 12 11 15 12 16 16 16 20 19 19 19 20 23 27
48 42 41 43 45 40 29 22 24 26 26 26 28 23 21 23 24 24 24 28 32 32 28 26 20 23 23 21 20 19 9 10 7 12 11 16 18 19 18 18 20 19 20 23 37
41 40 41 42 42 37 29 26 27 29 27 28 26 27 23 23 25 24 26 32 31 31 33 26 21 24 23 20 20 18 21 8 10 8 11 15 17 17 18 12 20 23 23 32 53
40 37 40 42 40 34 25 28 29 29 29 30 27 25 24 26 26 26 26 27 32 31 34 28 26 24 24 20 14 17 20 19 11 11 13 13 17 23 21 21 22 23 24 45 54
37 31 40 38 32 25 26 30 33 31 33 31 32 29 26 27 27 26 25 28 32 34 32 32 29 26 23 22 22 22 20 22 17 13 13 16 14 18 19 19 21 25 37 53 55
37 36 42 36 25 25 29 30 32 33 34 33 31 30 30 29 27 28 29 32 29 33 32 34 27 23 19 26 28 26 25 24 26 23 20 12 13 17 20 21 38 49 51 53 56
39 32 32 34 32 28 30 30 30 31 35 32 32 31 31 30 31 31 29 29 31 33 36 36 32 26 22 22 26 26 27 33 31 26 22 19 18 17 18 30 27 41 51 52 56
37 31 33 28 30 32 31 31 31 32 35 34 33 31 32 30 28 30 30 32 33 33 34 34 29 29 29 30 31 31 30 29 30 30 27 26 27 21 29 29 30 36 51 53 55
33 33 35 32 34 32 30 30 32 32 34 32 34 35 33 31 31 31 32 33 32 32 31 34 28 31 29 31 30 31 31 31 30 30 29 28 26 28 30 35 45 45 51 53 54
37 37 36 32 31 29 29 31 32 35 35 36 35 34 32 32 34 34 34 35 34 32 29 33 30 27 23 23 31 27 30 29 30 29 27 27 30 36 41 47 51 49 50 52 53